Simultaneous Nadir Overpasses (SNOs) Predictions

Prediction of SNOs between GOES-16 and LANDSAT-8 Satellite Orbit:

Table of predicted SNOs for the next 14.0 days since TLE Epoch: 11/6/2021
Index Date Time (GOES-16) GOES-16 Lat,Lon LANDSAT-8 Lat,Lon Distance(km) Time Diff (sec)
1 11/06/2021 15:03:28 0.00, -75.21 -0.58, -72.44 314.59 80
2 11/07/2021 03:22:12 -0.01, -75.19 -0.54, -77.63 276.96 80
3 11/09/2021 03:12:40 -0.02, -75.19 0.09, -74.67 59.29 80
4 11/11/2021 03:00:28 -0.03, -75.19 0.72, -71.71 396.13 80
5 11/11/2021 15:19:03 0.03, -75.20 0.39, -76.86 188.86 80
6 11/13/2021 15:09:31 0.03, -75.21 -0.25, -73.90 149.15 80
7 11/14/2021 03:28:15 -0.03, -75.21 -0.86, -79.09 441.69 80
8 11/15/2021 14:57:19 0.03, -75.23 -0.90, -70.94 487.99 80
9 11/16/2021 03:16:03 -0.03, -75.23 -0.21, -76.14 102.70 80
10 11/18/2021 03:06:31 -0.03, -75.26 0.45, -73.18 236.90 80
11 11/18/2021 15:25:06 0.02, -75.27 0.66, -78.33 347.66 80
